Vorticity
nan nan nan nan nan nan nan nan nan nan nan nan nan nan nan nan nan nan nan nan nan nan nan nan nan nan nan nan nan nan nan nan nan nan nan nan nan nan nan nan nan nan nan
nan 8 7 5 4 5 4 5 5 4 4 5 4 5 5 5 6 5 6 6 6 5 7 6 7 8 7 6 5 5 6 5 4 3 4 3 6 8 6 5 6 8 nan
nan 7 7 7 5 5 5 5 4 4 5 5 3 5 5 6 7 6 6 5 5 5 6 6 6 7 7 6 5 5 5 4 4 2 -2 -0 7 11 7 4 6 7 nan
nan 7 9 9 6 5 5 4 3 4 5 4 4 4 5 6 6 6 5 5 4 6 6 6 5 6 6 6 6 6 5 6 3 0 1 8 7 6 4 4 5 5 nan
nan 8 12 10 7 5 5 4 4 4 5 4 4 4 4 5 6 5 6 5 3 6 6 5 6 5 5 5 6 7 5 7 5 1 5 9 8 6 5 5 5 5 nan
nan 9 12 9 7 5 5 5 5 5 4 4 5 4 5 5 5 6 6 4 4 6 4 5 7 5 4 4 5 8 7 5 1 3 9 7 9 9 7 5 5 4 nan
nan 8 9 9 7 7 6 5 5 5 5 4 5 6 6 5 5 5 4 5 6 5 5 5 5 4 3 3 4 6 9 11 6 5 6 7 10 9 6 7 5 5 nan
nan 6 9 7 5 6 6 5 5 5 5 6 6 6 5 6 5 5 5 4 5 6 5 5 5 5 4 3 4 5 11 12 9 6 7 9 10 8 6 6 5 5 nan
nan 5 5 6 7 5 4 6 6 5 5 5 5 5 5 5 5 5 6 5 5 5 5 5 4 4 5 4 2 4 7 8 4 7 7 8 10 8 6 6 6 6 nan
nan 5 5 5 5 6 9 8 5 5 5 5 4 5 5 4 4 4 3 5 5 4 5 5 5 5 5 5 4 3 5 3 2 6 5 10 10 7 5 6 6 5 nan
nan 5 5 6 5 6 8 9 8 6 5 5 5 3 2 3 6 7 6 5 4 4 4 4 4 4 6 8 8 5 5 3 7 5 6 11 9 7 5 6 6 5 nan
nan 5 5 6 5 6 6 5 6 6 6 6 6 5 4 5 8 9 10 7 4 5 7 6 5 6 6 6 12 10 6 7 9 6 10 11 6 6 6 6 5 5 nan
nan 6 7 6 6 5 4 4 5 7 7 8 7 6 5 5 7 9 8 8 9 9 7 9 9 9 6 6 10 11 7 5 7 10 14 12 7 6 5 6 6 6 nan
nan 7 6 6 5 5 5 6 7 6 7 7 8 7 6 6 8 9 8 8 6 9 8 8 11 10 6 6 7 8 5 7 9 11 14 11 8 7 6 7 5 7 nan
nan 8 8 5 4 8 7 5 7 7 7 9 9 8 5 7 8 8 9 7 6 6 7 10 10 7 7 8 10 6 7 8 7 9 15 12 7 9 8 7 6 6 nan
nan 6 9 8 3 6 7 6 8 9 7 7 8 10 9 8 8 6 6 7 8 7 7 10 10 8 8 9 8 6 8 8 6 9 10 15 11 8 8 7 6 6 nan
nan 9 7 7 5 5 7 6 8 8 9 7 8 8 8 7 7 5 5 7 8 8 8 9 10 7 8 7 8 8 8 6 10 8 6 10 14 12 7 7 6 6 nan
nan 12 9 8 7 4 6 6 8 9 7 8 9 8 8 7 6 6 6 7 6 8 10 9 8 7 8 7 7 9 11 10 9 7 8 6 9 12 12 6 5 7 nan
nan 12 11 8 9 7 6 7 7 6 8 11 8 8 8 7 5 7 6 6 7 8 8 9 9 7 8 8 8 6 9 12 10 9 8 7 6 7 11 10 6 8 nan
nan 6 7 11 10 7 6 7 6 5 7 10 11 8 8 8 8 6 7 7 9 7 8 10 9 7 7 8 8 7 7 8 10 11 9 8 8 7 6 8 9 11 nan
nan 4 5 7 9 6 6 8 8 6 5 8 10 12 9 8 7 6 7 8 8 8 9 8 8 8 8 8 6 8 12 12 9 8 11 10 9 10 9 6 6 9 nan
nan 4 6 7 7 6 7 8 10 9 8 9 6 9 11 8 7 8 7 8 8 10 9 8 7 8 11 8 6 10 8 8 12 10 10 11 9 9 11 12 8 6 nan
nan 7 6 7 7 6 7 6 7 7 9 8 8 8 9 9 9 8 6 7 9 9 9 10 9 7 7 9 9 7 8 10 8 12 11 8 8 9 10 12 11 8 nan
nan 7 7 9 7 7 6 7 8 7 6 6 8 8 9 10 9 8 9 9 8 8 9 9 8 7 9 8 7 9 9 11 7 8 11 10 10 9 8 8 11 9 nan
nan 10 7 7 7 6 6 6 7 7 6 7 7 9 10 10 10 9 10 10 8 8 11 8 8 7 6 8 8 8 7 8 9 10 10 8 10 10 10 9 8 9 nan
nan nan nan nan nan nan nan nan nan nan nan nan nan nan nan nan nan nan nan nan nan nan nan nan nan nan nan nan nan nan nan nan nan nan nan nan nan nan nan nan nan nan nan
CAPE
980 1579 2411 2814 2903 2484 2249 2107 2107 1633 1543 1854 1811 2403 2173 2234 2337 2574 2640 2512 2848 2815 2411 2133 2330 2305 2320 2458 2368 2360 2366 2632 2528 2197 2114 1810 1794 2390 1734 399 1422 1494 2049
970 1472 2496 2936 2881 2648 2111 2217 1724 1762 1678 1944 1727 2558 2456 1872 1725 2348 2658 2436 2964 2710 1708 1846 2106 2199 2182 2172 2234 2224 1998 2143 2390 2165 2171 1937 1722 2073 1474 902 1915 1574 2143
776 1416 2025 2864 3093 2774 2374 2146 1688 1693 1635 1723 1699 2636 2428 1141 1281 2174 2293 2028 2679 1497 1966 1934 1957 1975 1905 2036 2207 2149 2246 2168 2281 2035 2064 1480 935 701 795 1947 2118 1715 2031
869 1188 1985 2804 3244 2872 2328 2165 2216 1808 1627 1559 2112 2213 2524 1247 1485 1821 2140 1865 1880 1803 1521 1826 1878 1941 1961 2163 2052 1871 1851 1382 1327 1407 965 1180 976 1182 1265 1926 2302 1793 1919
722 1283 2445 3238 3270 2737 2243 2191 2497 1979 1376 1796 2432 1863 2467 1639 1293 1888 2126 1854 1384 544 1294 1036 1636 1850 1878 1949 1780 1588 1079 1183 1115 803 775 582 1293 1994 2073 2106 2053 1746 2077
1180 1871 3247 3505 3533 2852 2168 2349 1924 2033 1460 2376 2112 1887 2109 2059 1140 2112 1965 1633 1751 246 156 1043 924 1633 1612 1593 1731 1209 1252 571 111 508 719 1441 1381 1898 1852 1968 1986 1801 2165
1275 1762 2209 3074 3179 3041 2396 2594 2532 1798 1922 2313 2556 1973 2062 2017 1208 1696 1756 1385 1461 935 49 378 1091 1104 1127 1126 1123 1244 883 986 139 402 904 751 999 1930 1981 1927 1770 2106 2109
1085 1468 1878 2752 3002 3050 2459 2365 2477 2089 1929 2160 2159 1989 1966 1957 1774 1543 1655 1371 983 821 771 588 905 873 905 815 735 969 1078 874 376 331 753 1204 1651 2035 2011 1721 1780 2103 2093
808 1091 1464 1572 1746 2383 2886 2191 1933 2129 2058 2245 2080 1995 2038 1934 1804 1505 1509 1408 1080 847 803 842 839 792 613 620 388 459 518 928 348 521 968 1121 2446 1762 1868 1898 1816 2092 2031
704 953 941 1223 1308 1704 1906 2025 2051 2223 1928 1647 1832 1983 1737 1492 1467 1396 1486 1320 962 909 789 576 461 454 396 553 827 670 395 1117 271 288 480 875 2260 1712 1603 1934 1979 2064 1965
474 466 650 929 1212 1203 1146 1213 1474 1493 1726 2163 1811 1657 1821 565 279 163 804 644 452 621 964 828 720 684 589 569 695 598 510 85 210 73 42 301 2056 1641 1313 1807 1903 2082 2134
319 241 402 533 758 905 1261 1494 1261 1386 1552 1415 1429 1027 302 105 0 71 270 212 318 278 504 576 532 442 830 592 318 772 207 109 92 214 164 319 1984 1632 1751 1732 1879 2061 2006
53 133 206 474 417 560 502 701 915 947 1072 1004 1045 1116 116 0 25 0 0 137 108 338 31 177 487 418 343 137 156 397 402 115 97 102 100 1056 1923 1546 1614 1703 1822 1701 1842
0 0 48 143 55 146 367 267 205 231 539 531 584 772 269 2 0 28 0 31 2 47 33 29 103 422 181 57 142 291 437 379 123 42 249 963 1099 1261 1444 1692 1567 1653 1718
0 0 0 30 2 46 290 120 125 272 412 263 435 532 264 346 198 240 311 13 13 9 0 0 297 288 298 293 467 159 0 48 262 18 47 649 1352 1157 1170 1773 1657 1644 1457
0 0 0 26 30 307 125 128 206 479 253 404 467 546 423 431 214 171 316 269 247 173 274 314 233 252 285 381 381 86 33 288 221 111 68 182 1229 1373 1145 1539 1385 1523 1404
0 0 13 37 2 222 77 372 481 467 715 172 27 18 545 239 414 210 100 135 216 318 431 390 326 262 252 467 275 408 267 368 143 139 48 37 696 1507 1885 1551 1551 1695 1547
0 0 0 337 297 222 787 223 374 517 402 261 150 327 313 340 592 352 294 390 484 455 528 529 403 168 388 695 405 273 426 407 477 183 14 145 518 669 1578 1794 1996 2004 1751
15 8 0 15 28 36 460 176 107 392 482 715 580 403 216 156 81 414 323 416 551 274 532 668 565 286 428 425 190 345 423 554 578 436 197 14 53 179 360 1051 976 1596 1266
202 96 60 184 35 100 215 166 127 152 293 860 878 516 264 249 239 688 629 686 679 494 381 440 291 467 613 375 709 4 159 264 628 339 363 303 0 0 13 151 858 815 1541
133 64 329 134 256 81 55 52 27 9 336 333 614 951 723 586 454 362 559 735 799 567 364 388 312 396 551 480 143 152 177 492 609 635 495 211 222 7 0 0 78 684 1051
232 114 424 115 81 0 0 0 0 31 268 442 188 89 844 648 552 510 637 995 720 579 495 503 440 380 531 556 206 62 238 347 585 884 604 550 505 301 226 112 108 298 557
506 417 316 187 31 0 0 0 0 0 8 262 72 0 193 981 1025 756 745 1250 531 304 268 394 403 415 271 345 400 179 39 55 137 379 741 625 539 320 254 454 202 192 144
661 427 350 251 6 0 0 0 0 0 0 19 304 103 455 776 982 1310 1202 1178 579 281 370 311 674 464 372 254 225 675 454 171 306 320 397 610 543 706 533 567 361 428 344
1049 556 388 426 37 0 0 0 0 0 0 24 289 535 538 604 956 783 1051 781 745 319 346 344 406 581 659 539 366 454 536 718 513 150 214 370 750 597 553 405 464 337 433
1381 1083 617 496 262 161 0 0 0 0 147 284 216 156 384 674 740 846 768 645 578 481 490 476 506 397 490 962 833 440 474 272 115 291 149 221 426 510 590 836 623 558 386